Location: Bijele Vode
(45.2833°N, 16.2000°E)
Time: 22:02:42
(UTC+00:00)

Nauka - Pass Details

Date: 01 October 2021
Orbit: 417 x 423 km, 51.6° (Epoch: 19 October)

Event Time Altitude Azimuth Distance (km) Brightness Sun altitude
Rises 18:16:53 0° 299° (WNW) 2,366 ? -18.5°
Reaches altitude 10° 18:18:59 10° 300° (WNW) 1,500 ? -18.9°
Maximum altitude 18:22:21 87° 29° (NNE) 424 ? -19.5°
Enters shadow 18:22:29 81° 96° (E) 428 ? -19.5°
